Livingston, MT

8:49 AM MDT on October 21, 2017 (GMT -0600)
Mission

Weather History for KLVM - January, 2014

Change the Weather History Date:

Saturday, January 11, 2014

  Actual Average Record
Temperature  
Mean Temperature 42 °F 27 °F  
Max Temperature 52 °F 37 °F 58 °F (1953)
Min Temperature 32 °F 17 °F -29 °F (1963)
Degree Days  
Heating Degree Days 23 38  
Month to date heating degree days 387 422  
Since 1 July heating degree days 3342 3587  
Cooling Degree Days 0 0  
Month to date cooling degree days 0  
Year to date cooling degree days 0  
Moisture  
Dew Point 26 °F    
Average Humidity 60    
Maximum Humidity 82    
Minimum Humidity 38    
Precipitation  
Precipitation T in 0.01 in 0.45 in (2000)
Month to date precipitation 0.06 0.17  
Year to date precipitation 0.06 0.17  
Sea Level Pressure  
Sea Level Pressure 29.54 in    
Wind  
Wind Speed 34 mph (WSW)    
Max Wind Speed 58 mph    
Max Gust Speed 75 mph    
Visibility 9 miles    
Events Snow    
T = Trace of Precipitation, MM = Missing Value Source: NWS Daily Summary

Daily Weather History Graph

Daily Weather History Graph

Search for Another Location

Airport or City:

Trip Planner

Search our weather history database for the weather conditions in past years. The results will help you decide how hot, cold, wet, or windy it might be!

Date:

Astronomy

Jan. 11, 2014 Rise Set
Actual Time 8:00 AM MST 4:59 PM MST
Civil Twilight 7:27 AM MST 5:32 PM MST
Nautical Twilight 6:50 AM MST 6:09 PM MST
Astronomical Twilight 6:14 AM MST 6:45 PM MST
Moon 1:48 PM MST (1/11) 4:05 AM MST (1/11)
Length of Visible Light 10h 05m
Length of Day
8h 58m
Waxing Gibbous, 83% of the Moon is Illuminated
Jan 11
Waxing Gibbous
Jan 15
Full
Jan 23
Last Quarter
Jan 30
New
Feb 6
First Quarter

Hourly Weather History & Observations

Time (MST) Temp. Windchill Dew Point Humidity Pressure Visibility Wind Dir Wind Speed Gust Speed Precip Events Conditions
12:53 AM 39.0 °F 27.8 °F 19.0 °F 45% 29.81 in 10.0 mi West 26.5 mph 36.8 mph N/A   Partly Cloudy
1:53 AM 39.9 °F 30.8 °F 19.0 °F 43% 29.79 in 10.0 mi WSW 18.4 mph 31.1 mph N/A   Clear
2:53 AM 43.0 °F 31.8 °F 21.0 °F 42% 29.73 in 10.0 mi WSW 34.5 mph 41.4 mph N/A   Mostly Cloudy
3:53 AM 43.0 °F 32.2 °F 21.9 °F 43% 29.75 in 10.0 mi SW 32.2 mph 51.8 mph N/A   Mostly Cloudy
4:40 AM 42.1 °F 31.3 °F 21.9 °F 45% 29.72 in 10.0 mi SW 29.9 mph 64.4 mph N/A   Squalls
4:53 AM 42.1 °F 30.1 °F 23.0 °F 47% 29.73 in 10.0 mi WSW 38.0 mph 49.5 mph N/A   Mostly Cloudy
5:53 AM 41.0 °F 29.0 °F 23.0 °F 49% 29.74 in 10.0 mi SW 35.7 mph 43.7 mph N/A   Overcast
6:53 AM 42.1 °F 30.8 °F 25.0 °F 51% 29.65 in 10.0 mi SW 33.4 mph 43.7 mph N/A   Scattered Clouds
7:53 AM 42.1 °F 28.8 °F 26.1 °F 53% 29.60 in 10.0 mi SW 49.5 mph 66.7 mph N/A   Partly Cloudy
8:53 AM 43.0 °F 31.4 °F 26.1 °F 51% 29.61 in 10.0 mi SW 38.0 mph 51.8 mph N/A   Mostly Cloudy
9:53 AM 48.0 °F - 27.0 °F 44% 29.55 in 10.0 mi SW 35.7 mph 47.2 mph N/A   Mostly Cloudy
10:53 AM 50.0 °F - 27.0 °F 41% 29.50 in 10.0 mi SW 51.8 mph 61.0 mph N/A   Partly Cloudy
11:53 AM 51.1 °F - 27.0 °F 39% 29.44 in 10.0 mi SW 46.0 mph 67.9 mph N/A   Clear
12:53 PM 51.1 °F - 27.0 °F 39% 29.39 in 10.0 mi SW 49.5 mph 65.6 mph N/A   Clear
1:53 PM 51.1 °F - 26.1 °F 38% 29.34 in 10.0 mi SSW 47.2 mph 67.9 mph N/A   Scattered Clouds
2:53 PM 50.0 °F - 26.1 °F 39% 29.34 in 10.0 mi SW 39.1 mph 52.9 mph N/A   Overcast
3:53 PM 48.0 °F - 26.1 °F 42% 29.32 in 10.0 mi SSW 47.2 mph 55.2 mph N/A   Mostly Cloudy
5:53 PM 46.9 °F - 27.0 °F 46% 29.34 in 10.0 mi SW 35.7 mph 46.0 mph N/A   Unknown
6:46 PM 35.1 °F 25.2 °F 27.0 °F 72% 29.43 in 10.0 mi WNW 16.1 mph 34.5 mph N/A   Overcast
6:53 PM 36.0 °F 22.4 °F 27.0 °F 70% 29.46 in 10.0 mi North 33.4 mph 42.6 mph N/A   Mostly Cloudy
7:15 PM 34.0 °F 21.5 °F 28.0 °F 79% 29.47 in 4.0 mi NNW 24.2 mph 34.5 mph 0.00 in Snow Light Snow
7:37 PM 34.0 °F 25.0 °F 28.0 °F 79% 29.50 in 9.0 mi NW 12.7 mph 18.4 mph 0.00 in Snow Light Snow
7:53 PM 34.0 °F 26.0 °F 28.0 °F 79% 29.54 in 10.0 mi WNW 10.4 mph 21.9 mph 0.00 in   Overcast
8:00 PM 34.0 °F 25.5 °F 28.0 °F 79% 29.50 in 4.0 mi West 11.5 mph - 0.00 in Snow Light Snow
8:23 PM 33.1 °F 24.9 °F 28.9 °F 85% 29.50 in 6.0 mi SW 10.4 mph - 0.00 in Snow Light Snow
8:31 PM 32.0 °F 23.6 °F 28.9 °F 88% 29.50 in 1.8 mi SW 10.4 mph - 0.00 in Snow Light Snow
8:53 PM 32.0 °F 21.6 °F 28.9 °F 88% 29.54 in 1.5 mi WSW 15.0 mph - 0.00 in Snow Light Snow
8:57 PM 32.0 °F 22.1 °F 28.0 °F 85% 29.50 in 3.0 mi WSW 13.8 mph - 0.00 in Snow Light Snow
9:05 PM 32.0 °F 24.2 °F 28.0 °F 85% 29.50 in 6.0 mi WSW 9.2 mph - 0.00 in Snow Light Snow
9:19 PM 34.0 °F 21.5 °F 27.0 °F 75% 29.48 in 10.0 mi SW 24.2 mph - 0.00 in   Mostly Cloudy
9:53 PM 34.0 °F 22.7 °F 26.1 °F 73% 29.49 in 10.0 mi WSW 19.6 mph - 0.00 in   Scattered Clouds
10:53 PM 33.1 °F 23.0 °F 25.0 °F 72% 29.48 in 10.0 mi West 15.0 mph - N/A   Clear
11:53 PM 34.0 °F 23.8 °F 25.0 °F 70% 29.44 in 10.0 mi WSW 16.1 mph - N/A   Scattered Clouds